| time (UTC) | temp F | wind direction | speed MPH | gust MPH | rain 1hr in | rain 24hr in | rain mn in | humidity % | barometer mb |
| 20260906024654 | 68 | 31 | 1.0 | 5.0 | 0.00 | 0.00 | 0.00 | 77 | 1022.3 |
| 20260906023147 | 68 | 44 | 1.0 | 4.0 | 0.00 | 0.00 | 0.00 | 78 | 1022.3 |
| 20260906021655 | 68 | 20 | 0.0 | 3.0 | 0.00 | 0.00 | 0.00 | 78 | 1022.4 |
| 20260906020157 | 69 | 20 | 0.0 | 0.0 | 0.00 | 0.00 | 0.00 | 77 | 1022.4 |
| 20260906014653 | 69 | 20 | 0.0 | 4.0 | 0.00 | 0.00 | 0.00 | 76 | 1022.5 |
| 20260906013145 | 69 | 36 | 1.0 | 5.0 | 0.00 | 0.00 | 0.00 | 76 | 1022.4 |
| 20260906011652 | 70 | 360 | 1.0 | 4.0 | 0.00 | 0.00 | 0.00 | 76 | 1022.4 |
| 20260906010154 | 70 | 26 | 0.0 | 3.0 | 0.00 | 0.00 | 0.00 | 75 | 1022.4 |
| 20260906004652 | 70 | 26 | 1.0 | 3.0 | 0.00 | 0.00 | 0.00 | 75 | 1022.5 |
| 20260906003141 | 70 | 26 | 1.0 | 4.0 | 0.00 | 0.00 | 0.00 | 74 | 1022.5 |
| 20260906001650 | 71 | 26 | 0.0 | 2.0 | 0.00 | 0.00 | 0.00 | 72 | 1022.6 |
| 20260906000151 | 72 | 26 | 1.0 | 4.0 | 0.00 | 0.00 | 0.00 | 72 | 1022.7 |
| 20260905234654 | 72 | 26 | 1.0 | 4.0 | 0.00 | 0.00 | 0.00 | 72 | 1022.6 |
| 20260905231652 | 73 | 24 | 0.0 | 3.0 | 0.00 | 0.00 | 0.00 | 69 | 1022.7 |
| 20260905230151 | 74 | 36 | 0.0 | 4.0 | 0.00 | 0.00 | 0.00 | 69 | 1022.8 |
| 20260905224653 | 75 | 56 | 1.0 | 3.0 | 0.00 | 0.00 | 0.00 | 67 | 1022.7 |
| 20260905223147 | 75 | 56 | 0.0 | 4.0 | 0.00 | 0.00 | 0.00 | 66 | 1022.7 |
| 20260905221652 | 75 | 22 | 1.0 | 4.0 | 0.00 | 0.00 | 0.00 | 66 | 1022.5 |
| 20260905220156 | 76 | 13 | 2.0 | 5.0 | 0.00 | 0.00 | 0.00 | 66 | 1022.5 |
| 20260905214652 | 76 | 38 | 1.0 | 3.0 | 0.00 | 0.00 | 0.00 | 65 | 1022.6 |
| 20260905213139 | 77 | 38 | 2.0 | 4.0 | 0.00 | 0.00 | 0.00 | 65 | 1022.5 |
| 20260905211652 | 78 | 38 | 0.0 | 4.0 | 0.00 | 0.00 | 0.00 | 64 | 1022.4 |
| 20260905210153 | 78 | 38 | 1.0 | 4.0 | 0.00 | 0.00 | 0.00 | 64 | 1022.6 |
| 20260905204650 | 79 | 38 | 1.0 | 4.0 | 0.00 | 0.00 | 0.00 | 64 | 1022.5 |
| 20260905203144 | 82 | 67 | 1.0 | 3.0 | 0.00 | 0.00 | 0.00 | 62 | 1022.5 |
| 20260905201655 | 83 | 172 | 0.0 | 0.0 | 0.00 | 0.00 | 0.00 | 61 | 1022.5 |
| 20260905200155 | 83 | 173 | 0.0 | 1.0 | 0.00 | 0.00 | 0.00 | 60 | 1022.1 |
| 20260905194652 | 84 | 173 | 1.0 | 3.0 | 0.00 | 0.00 | 0.00 | 61 | 1022.1 |
| 20260905193140 | 85 | 173 | 0.0 | 1.0 | 0.00 | 0.00 | 0.00 | 58 | 1021.9 |
| 20260905191653 | 85 | 173 | 0.0 | 4.0 | 0.00 | 0.00 | 0.00 | 56 | 1021.7 |
| 20260905190156 | 86 | 191 | 1.0 | 7.0 | 0.00 | 0.00 | 0.00 | 54 | 1021.5 |
| 20260905184654 | 87 | 128 | 3.0 | 6.0 | 0.00 | 0.00 | 0.00 | 52 | 1021.4 |
| 20260905183143 | 87 | 98 | 0.0 | 10.0 | 0.00 | 0.00 | 0.00 | 51 | 1021.3 |
| 20260905181655 | 88 | 69 | 1.0 | 8.0 | 0.00 | 0.00 | 0.00 | 51 | 1021.2 |
| 20260905180155 | 88 | 97 | 2.0 | 13.0 | 0.00 | 0.00 | 0.00 | 50 | 1020.9 |
| 20260905174653 | 89 | 78 | 3.0 | 13.0 | 0.00 | 0.00 | 0.00 | 50 | 1020.9 |
| 20260905173142 | 90 | 92 | 4.0 | 15.0 | 0.00 | 0.00 | 0.00 | 50 | 1020.8 |
| 20260905171650 | 90 | 46 | 6.0 | 14.0 | 0.00 | 0.00 | 0.00 | 50 | 1020.8 |
| 20260905170151 | 91 | 117 | 4.0 | 16.0 | 0.00 | 0.00 | 0.00 | 49 | 1020.6 |
| 20260905164654 | 92 | 104 | 8.0 | 20.0 | 0.00 | 0.00 | 0.00 | 48 | 1020.4 |
| 20260905163142 | 92 | 121 | 9.0 | 18.0 | 0.00 | 0.00 | 0.00 | 47 | 1020.5 |
| 20260905161654 | 93 | 146 | 7.0 | 16.0 | 0.00 | 0.00 | 0.00 | 46 | 1020.5 |
| 20260905160152 | 94 | 136 | 9.0 | 18.0 | 0.00 | 0.00 | 0.00 | 44 | 1020.5 |
| 20260905154655 | 95 | 167 | 7.0 | 18.0 | 0.00 | 0.00 | 0.00 | 42 | 1020.6 |
| 20260905153143 | 96 | 118 | 7.0 | 19.0 | 0.00 | 0.00 | 0.00 | 38 | 1020.5 |
| 20260905151657 | 96 | 150 | 8.0 | 14.0 | 0.00 | 0.00 | 0.00 | 35 | 1020.7 |
| 20260905150155 | 96 | 195 | 9.0 | 18.0 | 0.00 | 0.00 | 0.00 | 35 | 1020.8 |
| 20260905144655 | 97 | 191 | 6.0 | 14.0 | 0.00 | 0.00 | 0.00 | 33 | 1020.9 |
| 20260905143144 | 97 | 180 | 7.0 | 14.0 | 0.00 | 0.00 | 0.00 | 33 | 1020.9 |
| 20260905141655 | 98 | 159 | 6.0 | 13.0 | 0.00 | 0.00 | 0.00 | 31 | 1020.9 |
| 20260905140153 | 98 | 223 | 8.0 | 18.0 | 0.00 | 0.00 | 0.00 | 31 | 1020.9 |
| 20260905134652 | 98 | 130 | 6.0 | 18.0 | 0.00 | 0.00 | 0.00 | 30 | 1021.0 |
| 20260905133142 | 98 | 182 | 7.0 | 19.0 | 0.00 | 0.00 | 0.00 | 31 | 1021.1 |
| 20260905131653 | 98 | 132 | 7.0 | 17.0 | 0.00 | 0.00 | 0.00 | 31 | 1021.1 |
| 20260905130157 | 98 | 207 | 7.0 | 17.0 | 0.00 | 0.00 | 0.00 | 30 | 1021.2 |
| 20260905124652 | 98 | 175 | 5.0 | 17.0 | 0.00 | 0.00 | 0.00 | 30 | 1021.3 |
| 20260905123143 | 98 | 144 | 5.0 | 17.0 | 0.00 | 0.00 | 0.00 | 30 | 1021.4 |
| 20260905121654 | 98 | 146 | 6.0 | 14.0 | 0.00 | 0.00 | 0.00 | 30 | 1021.6 |
| 20260905120202 | 97 | 130 | 4.0 | 15.0 | 0.00 | 0.00 | 0.00 | 30 | 1021.7 |
| 20260905114652 | 97 | 96 | 4.0 | 15.0 | 0.00 | 0.00 | 0.00 | 30 | 1021.9 |
| 20260905111652 | 96 | 183 | 7.0 | 12.0 | 0.00 | 0.00 | 0.00 | 32 | 1022.0 |
| 20260905110153 | 96 | 213 | 4.0 | 12.0 | 0.00 | 0.00 | 0.00 | 32 | 1022.0 |
| 20260905104653 | 96 | 178 | 6.0 | 12.0 | 0.00 | 0.00 | 0.00 | 32 | 1022.1 |
| 20260905103142 | 96 | 158 | 5.0 | 12.0 | 0.00 | 0.00 | 0.00 | 33 | 1022.0 |
| 20260905101653 | 92 | 184 | 5.0 | 10.0 | 0.00 | 0.00 | 0.00 | 40 | 1022.2 |
| 20260905100154 | 89 | 319 | 0.0 | 0.0 | 0.00 | 0.00 | 0.00 | 49 | 1022.3 |
| 20260905094653 | 87 | 346 | 0.0 | 2.0 | 0.00 | 0.00 | 0.00 | 52 | 1022.5 |
| 20260905093140 | 85 | 16 | 1.0 | 6.0 | 0.00 | 0.00 | 0.00 | 56 | 1022.6 |
| 20260905091502 | 84 | 49 | 0.0 | 5.0 | 0.00 | 0.00 | 0.00 | 60 | 1022.7 |
| 20260905090201 | 83 | 29 | 1.0 | 5.0 | 0.00 | 0.00 | 0.00 | 60 | 1022.7 |
| 20260905084652 | 81 | 40 | 0.0 | 4.0 | 0.00 | 0.00 | 0.00 | 64 | 1022.7 |
| 20260905083143 | 80 | 16 | 2.0 | 4.0 | 0.00 | 0.00 | 0.00 | 66 | 1022.7 |
| 20260905081652 | 79 | 10 | 1.0 | 4.0 | 0.00 | 0.00 | 0.00 | 68 | 1022.7 |
| 20260905080152 | 77 | 68 | 0.0 | 8.0 | 0.00 | 0.00 | 0.00 | 71 | 1022.8 |
| 20260905074655 | 76 | 21 | 2.0 | 7.0 | 0.00 | 0.00 | 0.00 | 74 | 1022.8 |
| 20260905073141 | 74 | 38 | 2.0 | 6.0 | 0.00 | 0.00 | 0.00 | 77 | 1022.7 |
| 20260905070154 | 72 | 26 | 0.0 | 4.0 | 0.00 | 0.00 | 0.00 | 82 | 1022.8 |
| 20260905064652 | 70 | 26 | 1.0 | 5.0 | 0.00 | 0.00 | 0.00 | 84 | 1022.7 |
| 20260905063142 | 69 | 45 | 1.0 | 4.0 | 0.00 | 0.00 | 0.00 | 86 | 1022.6 |
| 20260905061653 | 69 | 47 | 1.0 | 3.0 | 0.00 | 0.00 | 0.00 | 86 | 1022.5 |
| 20260905060153 | 68 | 47 | 0.0 | 1.0 | 0.00 | 0.00 | 0.00 | 86 | 1022.4 |
| 20260905054652 | 68 | 47 | 0.0 | 2.0 | 0.00 | 0.00 | 0.00 | 86 | 1022.3 |
| 20260905053144 | 68 | 47 | 0.0 | 1.0 | 0.00 | 0.00 | 0.00 | 86 | 1022.1 |
| 20260905051655 | 69 | 40 | 0.0 | 0.0 | 0.00 | 0.00 | 0.00 | 85 | 1022.0 |
| 20260905050159 | 69 | 40 | 0.0 | 3.0 | 0.00 | 0.00 | 0.00 | 86 | 1022.0 |
| 20260905044652 | 69 | 58 | 3.0 | 6.0 | 0.00 | 0.00 | 0.00 | 86 | 1021.9 |
| 20260905043144 | 69 | 43 | 4.0 | 7.0 | 0.00 | 0.00 | 0.00 | 86 | 1021.8 |
| 20260905041654 | 69 | 53 | 3.0 | 7.0 | 0.00 | 0.00 | 0.00 | 86 | 1021.6 |
| 20260905040156 | 70 | 24 | 2.0 | 6.0 | 0.00 | 0.00 | 0.00 | 85 | 1021.6 |
| 20260905034652 | 70 | 49 | 1.0 | 7.0 | 0.00 | 0.00 | 0.00 | 86 | 1021.5 |
| 20260905033144 | 70 | 56 | 4.0 | 6.0 | 0.00 | 0.00 | 0.00 | 85 | 1021.6 |
| 20260905031653 | 71 | 16 | 5.0 | 8.0 | 0.00 | 0.00 | 0.00 | 85 | 1021.4 |
| 20260905030153 | 71 | 38 | 1.0 | 5.0 | 0.00 | 0.00 | 0.00 | 85 | 1021.3 |